When you browse on this site, cookies collect data to enhance your experience and personalize the content and advertising you see.
Visit our Privacy Policy to learn more. By continuing to use the site, you agree to this use of cookies and data.
  • în România
  • Lista ţărilor
  • Pe 7 zile
  • Temperatura apei
  • Meteo pe hartă
  • Widget-uri
  • user-avatar
    Intrare

    Meteo pe oră la Rio Branco

    Astăzi, 23 Februarie, Duminică

    Timp Temperatura Precipitaţii Vânt Presiune Umiditate
    00:00 +22°C° 0 mm 1 m/s 747 mmHg 90%
    01:00 +22°C° 0 mm 1 m/s 747 mmHg 86%
    02:00 +21°C° 0 mm 1 m/s 746 mmHg 88%
    03:00 +21°C° 0 mm 1 m/s 746 mmHg 90%
    04:00 +20°C° 0 mm 1 m/s 745 mmHg 91%
    05:00 +21°C° 0 mm 1 m/s 746 mmHg 89%
    06:00 +22°C° 0 mm 1 m/s 747 mmHg 87%
    07:00 +23°C° 0 mm 2 m/s 747 mmHg 89%
    08:00 +25°C° 0 mm 2 m/s 747 mmHg 82%
    09:00 +26°C° 0 mm 2 m/s 748 mmHg 75%
    10:00 +28°C° 0 mm 2 m/s 748 mmHg 68%
    11:00 +29°C° 0 mm 2 m/s 747 mmHg 65%
    12:00 +30°C° 0 mm 2 m/s 746 mmHg 63%
    13:00 +31°C° 0 mm 1 m/s 745 mmHg 61%
    14:00 +30°C° 0 mm 1 m/s 745 mmHg 64%
    15:00 +30°C° 0 mm 1 m/s 744 mmHg 68%
    16:00 +29°C° 0 mm 1 m/s 743 mmHg 71%
    17:00 +28°C° 0 mm 1 m/s 743 mmHg 76%
    18:00 +26°C° 0 mm 1 m/s 744 mmHg 80%
    19:00 +25°C° 0 mm 1 m/s 744 mmHg 85%
    20:00 +24°C° 0 mm 1 m/s 745 mmHg 85%
    21:00 +24°C° 0 mm 1 m/s 745 mmHg 84%
    22:00 +23°C° 0 mm 1 m/s 746 mmHg 84%
    23:00 +23°C° 0 mm 1 m/s 746 mmHg 85%

    Mâine, 24 Februarie, Luni

    Timp Temperatura Precipitaţii Vânt Presiune Umiditate
    00:00 +21°C° 0 mm 0 m/s 746 mmHg 85%
    01:00 +21°C° 0 mm 0 m/s 746 mmHg 86%
    02:00 +21°C° 0 mm 0 m/s 745 mmHg 86%
    03:00 +22°C° 0 mm 1 m/s 745 mmHg 87%
    04:00 +22°C° 0 mm 1 m/s 744 mmHg 88%
    05:00 +23°C° 0 mm 1 m/s 745 mmHg 86%
    06:00 +23°C° 0 mm 1 m/s 745 mmHg 84%
    07:00 +22°C° 0 mm 0 m/s 746 mmHg 83%
    08:00 +25°C° 0 mm 0 m/s 746 mmHg 76%
    09:00 +27°C° 0 mm 0 m/s 746 mmHg 69%
    10:00 +30°C° 0 mm 0 m/s 746 mmHg 63%
    11:00 +32°C° 0 mm 1 m/s 745 mmHg 61%
    12:00 +33°C° 0 mm 1 m/s 744 mmHg 60%
    13:00 +33°C° 0 mm 1 m/s 743 mmHg 59%
    14:00 +33°C° 0 mm 1 m/s 742 mmHg 61%
    15:00 +33°C° 0 mm 1 m/s 741 mmHg 64%
    16:00 +32°C° 0 mm 1 m/s 741 mmHg 66%
    17:00 +31°C° 0.1 mm 1 m/s 741 mmHg 74%
    18:00 +29°C° 0.1 mm 1 m/s 741 mmHg 82%
    19:00 +27°C° 0.1 mm 1 m/s 742 mmHg 90%
    20:00 +27°C° 0 mm 1 m/s 743 mmHg 90%
    21:00 +26°C° 0 mm 1 m/s 743 mmHg 91%
    22:00 +24°C° 0 mm 0 m/s 744 mmHg 92%
    23:00 +24°C° 0.2 mm 0 m/s 744 mmHg 93%

    Poimâine, 25 Februarie, Marţi

    Timp Temperatura Precipitaţii Vânt Presiune Umiditate
    00:00 +24°C° 0.2 mm 0 m/s 744 mmHg 94%
    01:00 +25°C° 0.2 mm 1 m/s 744 mmHg 95%
    02:00 +25°C° 0 mm 1 m/s 743 mmHg 96%
    03:00 +25°C° 0 mm 1 m/s 743 mmHg 97%
    04:00 +25°C° 0 mm 1 m/s 743 mmHg 98%
    05:00 +25°C° 0 mm 1 m/s 743 mmHg 96%
    06:00 +26°C° 0 mm 1 m/s 744 mmHg 95%
    07:00 +27°C° 0 mm 1 m/s 744 mmHg 93%
    08:00 +28°C° 0.1 mm 1 m/s 745 mmHg 85%
    09:00 +30°C° 0.1 mm 1 m/s 745 mmHg 77%
    10:00 +32°C° 0.1 mm 2 m/s 745 mmHg 69%
    11:00 +32°C° 1 mm 2 m/s 744 mmHg 70%
    12:00 +32°C° 1 mm 2 m/s 744 mmHg 72%
    13:00 +33°C° 1 mm 1 m/s 743 mmHg 74%
    14:00 +32°C° 1 mm 2 m/s 742 mmHg 78%
    15:00 +31°C° 1 mm 2 m/s 741 mmHg 82%
    16:00 +30°C° 1 mm 2 m/s 741 mmHg 85%
    17:00 +29°C° 0.1 mm 2 m/s 741 mmHg 88%
    18:00 +28°C° 0.1 mm 1 m/s 741 mmHg 90%
    19:00 +27°C° 0.1 mm 1 m/s 742 mmHg 93%
    20:00 +27°C° 0 mm 1 m/s 743 mmHg 94%
    21:00 +27°C° 0 mm 1 m/s 744 mmHg 95%
    22:00 +26°C° 0 mm 1 m/s 744 mmHg 96%
    23:00 +26°C° 0 mm 1 m/s 744 mmHg 96%

    26 Februarie, Miercuri

    Timp Temperatura Precipitaţii Vânt Presiune Umiditate
    00:00 +26°C° 0 mm 1 m/s 744 mmHg 96%
    01:00 +26°C° 0 mm 1 m/s 744 mmHg 97%
    02:00 +26°C° 0.1 mm 1 m/s 743 mmHg 97%
    03:00 +25°C° 0.1 mm 1 m/s 743 mmHg 98%
    04:00 +25°C° 0.1 mm 1 m/s 743 mmHg 98%
    05:00 +26°C° 0 mm 1 m/s 743 mmHg 96%
    06:00 +26°C° 0 mm 1 m/s 744 mmHg 95%
    07:00 +27°C° 0 mm 1 m/s 745 mmHg 93%
    08:00 +29°C° 0.1 mm 1 m/s 745 mmHg 85%
    09:00 +31°C° 0.1 mm 2 m/s 745 mmHg 76%
    10:00 +32°C° 0.1 mm 2 m/s 746 mmHg 68%
    11:00 +34°C° 1.2 mm 2 m/s 745 mmHg 72%
    12:00 +33°C° 1.2 mm 1 m/s 744 mmHg 76%
    13:00 +33°C° 1.2 mm 1 m/s 743 mmHg 79%
    14:00 +32°C° 2.2 mm 1 m/s 742 mmHg 83%
    15:00 +31°C° 2.2 mm 1 m/s 741 mmHg 87%
    16:00 +30°C° 2.2 mm 1 m/s 741 mmHg 91%
    17:00 +27°C° 0.1 mm 0 m/s 742 mmHg 91%
    18:00 +26°C° 0.1 mm 0 m/s 742 mmHg 92%
    19:00 +25°C° 0.1 mm 0 m/s 743 mmHg 92%
    20:00 +25°C° 0.1 mm 0 m/s 743 mmHg 93%
    21:00 +25°C° 0.1 mm 0 m/s 744 mmHg 94%
    22:00 +24°C° 0.1 mm 0 m/s 744 mmHg 94%
    23:00 +24°C° 0 mm 0 m/s 744 mmHg 95%

    27 Februarie, Joi

    Timp Temperatura Precipitaţii Vânt Presiune Umiditate
    00:00 +24°C° 0 mm 0 m/s 744 mmHg 95%
    01:00 +24°C° 0 mm 0 m/s 743 mmHg 96%
    02:00 +24°C° 0.6 mm 0 m/s 743 mmHg 96%
    03:00 +24°C° 0.6 mm 0 m/s 743 mmHg 96%
    04:00 +24°C° 0.6 mm 0 m/s 743 mmHg 97%
    05:00 +24°C° 2.4 mm 0 m/s 744 mmHg 97%
    06:00 +24°C° 2.4 mm 0 m/s 744 mmHg 98%
    07:00 +24°C° 2.4 mm 0 m/s 745 mmHg 98%
    08:00 +25°C° 2 mm 0 m/s 745 mmHg 97%
    09:00 +27°C° 2 mm 1 m/s 746 mmHg 96%
    10:00 +28°C° 2 mm 1 m/s 746 mmHg 95%
    11:00 +28°C° 1.5 mm 1 m/s 745 mmHg 94%
    12:00 +28°C° 1.5 mm 2 m/s 744 mmHg 93%
    13:00 +28°C° 1.5 mm 3 m/s 744 mmHg 93%
    14:00 +27°C° 0.4 mm 2 m/s 743 mmHg 93%
    15:00 +27°C° 0.4 mm 2 m/s 743 mmHg 93%
    16:00 +26°C° 0.4 mm 1 m/s 742 mmHg 94%
    17:00 +26°C° 0 mm 1 m/s 743 mmHg 94%
    18:00 +23°C° 0 mm 0 m/s 743 mmHg 95%
    19:00 +23°C° 0 mm 0 m/s 744 mmHg 96%
    20:00 +23°C° 0 mm 0 m/s 745 mmHg 96%
    21:00 +23°C° 0 mm 0 m/s 745 mmHg 97%
    22:00 +25°C° 0 mm 1 m/s 746 mmHg 97%
    23:00 +23°C° 0.2 mm 0 m/s 745 mmHg 97%

    28 Februarie, Vineri

    Timp Temperatura Precipitaţii Vânt Presiune Umiditate
    00:00 +23°C° 0.2 mm 0 m/s 745 mmHg 97%
    01:00 +23°C° 0.2 mm 0 m/s 745 mmHg 97%
    02:00 +23°C° 1 mm 0 m/s 745 mmHg 98%
    03:00 +22°C° 1 mm 0 m/s 744 mmHg 98%
    04:00 +22°C° 1 mm 0 m/s 744 mmHg 99%
    05:00 +23°C° 0.9 mm 0 m/s 745 mmHg 99%
    06:00 +23°C° 0.9 mm 0 m/s 745 mmHg 99%
    07:00 +23°C° 0.9 mm 0 m/s 746 mmHg 99%
    08:00 +23°C° 0.4 mm 0 m/s 746 mmHg 98%
    09:00 +23°C° 0.4 mm 0 m/s 746 mmHg 98%
    10:00 +26°C° 0.4 mm 1 m/s 747 mmHg 97%
    11:00 +26°C° 0.6 mm 1 m/s 746 mmHg 97%
    12:00 +26°C° 0.6 mm 1 m/s 745 mmHg 97%
    13:00 +26°C° 0.6 mm 1 m/s 745 mmHg 97%
    14:00 +26°C° 0.1 mm 1 m/s 744 mmHg 97%
    15:00 +26°C° 0.1 mm 1 m/s 743 mmHg 97%
    16:00 +25°C° 0.1 mm 1 m/s 743 mmHg 97%
    17:00 +25°C° 0 mm 1 m/s 743 mmHg 98%
    18:00 +25°C° 0 mm 1 m/s 743 mmHg 98%
    19:00 +25°C° 0 mm 1 m/s 744 mmHg 98%
    20:00 +25°C° 0 mm 1 m/s 744 mmHg 98%
    21:00 +24°C° 0 mm 1 m/s 745 mmHg 99%
    22:00 +22°C° 0 mm 0 m/s 745 mmHg 99%
    23:00 +22°C° 0 mm 0 m/s 745 mmHg 98%
    Arată mai mult